User: anonymous   Login
Location: McDonald Observatory
(30.6717°N, 104.0221°W)
Time: 11:53:03
(UTC-06:00)
Language:

Cosmos 1484 Rocket - Orbit

View from above orbital plane
View from above orbital plane
View from above satellite
View from above satellite

Ground track
Ground track

The orbit data is extracted from the following two-line orbital elements,

1 14208U 83075B   16341.50094243  .00000400  00000-0  27774-4 0  9995
2 14208  97.3467 353.9530 0041206  76.5239 284.0578 15.10193991818422
Epoch (UTC): 06 December 2016 12:01:21
Eccentricity: 0.0041206
inclination: 97.3467°
perigee height: 507 km
apogee height: 564 km
right ascension of ascending node: 353.9530°
argument of perigee: 76.5239°
revolutions per day: 15.10193991
mean anomaly at epoch: 284.0578°
orbit number at epoch: 81842

The dashed part of the orbit path shows where the satellite is in the earth's shadow,  

DLR